Weather History for Newport, VT

Change the Weather History Date:

Thursday, March 20, 2014

  Actual Average Record
Temperature  
Mean Temperature 36 °F -  
Max Temperature 39 °F 43 °F 77 °F (2012)
Min Temperature 32 °F 19 °F -8 °F (1949)
Degree Days  
Heating Degree Days 30    
Moisture  
Dew Point 29 °F    
Average Humidity 81    
Maximum Humidity 88    
Minimum Humidity 61    
Precipitation  
Precipitation 0.00 in - - ()
Sea Level Pressure  
Sea Level Pressure 29.63 in    
Wind  
Wind Speed 9 mph (SSW)    
Max Wind Speed 13 mph    
Max Gust Speed 24 mph    
Visibility 5 miles    
Events Rain , Snow    
Averages and records for this station are not official NWS values.
T = Trace of Precipitation, MM = Missing Value Source: NWS Daily Summary

Daily Weather History Graph

Daily Weather History Graph

Search for Another Location

Airport:

Trip Planner

Search our weather history database for the weather conditions in past years. The results will help you decide how hot, cold, wet, or windy it might be!

Date:

Astronomy

Mar. 20, 2014 Rise Set
Actual Time 6:52 AM EDT 7:01 PM EDT
Civil Twilight 6:22 AM EDT 7:30 PM EDT
Nautical Twilight 5:48 AM EDT 8:04 PM EDT
Astronomical Twilight 5:13 AM EDT 8:40 PM EDT
Moon 11:29 PM EDT (3/20) 8:46 AM EDT (3/20)
Length of Visible Light 13h 07m
Length of Day
12h 09m
Waning Gibbous, 84% of the Moon is Illuminated
Mar 20
Waning Gibbous
Mar 23
Last Quarter
Mar 30
New
Apr 7
First Quarter
Apr 15
Full

Hourly Weather History & Observations

Time (EDT) Temp. Windchill Dew Point Humidity Pressure Visibility Wind Dir Wind Speed Gust Speed Precip Events Conditions
12:15 AM 32.4 °F 23.0 °F 27.9 °F 83% 29.85 in 1.0 mi SSE 12.7 mph 20.7 mph N/A Snow Snow
12:35 AM 32.0 °F 23.0 °F 28.4 °F 87% 29.85 in 1.8 mi South 11.5 mph 17.3 mph N/A Snow Light Snow
12:55 AM 32.2 °F 23.8 °F 28.4 °F 86% 29.84 in 2.5 mi SSE 10.4 mph - N/A Snow Light Snow
1:15 AM 32.2 °F 23.8 °F 28.4 °F 86% 29.83 in 4.0 mi South 10.4 mph - N/A Snow Light Snow
1:35 AM 32.2 °F 23.8 °F 28.2 °F 85% 29.83 in 3.0 mi SSE 10.4 mph - N/A Snow Light Snow
2:15 AM 32.2 °F 23.8 °F 28.2 °F 85% 29.81 in 5.0 mi SSE 10.4 mph - N/A Snow Light Snow
2:35 AM 32.4 °F 23.0 °F 27.5 °F 82% 29.79 in 5.0 mi SSE 12.7 mph - N/A Snow Light Snow
2:55 AM 32.2 °F 24.4 °F 27.5 °F 83% 29.77 in 5.0 mi South 9.2 mph - N/A Snow Light Snow
3:15 AM 32.2 °F 23.2 °F 27.5 °F 83% 29.76 in 7.0 mi SSE 11.5 mph - N/A Snow Light Snow
3:35 AM 32.4 °F 23.5 °F 27.5 °F 82% 29.75 in 7.0 mi South 11.5 mph - N/A Snow Light Snow
3:55 AM 32.5 °F 24.2 °F 27.9 °F 83% 29.73 in 4.0 mi SSE 10.4 mph 17.3 mph N/A Snow Light Snow
4:15 AM 32.4 °F 23.5 °F 28.0 °F 84% 29.72 in 4.0 mi South 11.5 mph 17.3 mph N/A Snow Light Snow
4:35 AM 32.7 °F 25.0 °F 28.0 °F 83% 29.71 in 3.0 mi South 9.2 mph - N/A Snow Light Snow
4:55 AM 32.0 °F 26.4 °F 28.4 °F 87% 29.70 in 2.5 mi South 5.8 mph - N/A Snow Light Snow
5:15 AM 32.0 °F 25.6 °F 28.2 °F 86% 29.69 in 7.0 mi South 6.9 mph - N/A Snow Light Snow
5:35 AM 32.0 °F 24.2 °F 28.2 °F 86% 29.68 in 10.0 mi South 9.2 mph - N/A   Overcast
5:55 AM 32.4 °F 25.3 °F 27.9 °F 83% 29.67 in 10.0 mi South 8.1 mph - N/A   Overcast
6:15 AM 32.2 °F 25.8 °F 28.0 °F 85% 29.67 in 10.0 mi SSW 6.9 mph - N/A   Overcast
6:35 AM 32.0 °F 25.6 °F 28.0 °F 85% 29.67 in 2.5 mi SSW 6.9 mph - N/A Snow Light Snow
6:55 AM 32.0 °F 25.6 °F 28.4 °F 87% 29.67 in 1.2 mi South 6.9 mph - N/A Snow Light Snow
7:15 AM 32.0 °F 24.2 °F 28.6 °F 87% 29.65 in 3.0 mi South 9.2 mph - N/A Snow Light Snow
7:35 AM 32.2 °F 27.7 °F 29.1 °F 88% 29.65 in 3.0 mi South 4.6 mph - N/A Snow Light Snow
7:55 AM 32.9 °F 26.7 °F 29.3 °F 87% 29.64 in 10.0 mi South 6.9 mph - N/A   Overcast
8:15 AM 33.1 °F 26.9 °F 29.1 °F 85% 29.63 in 5.0 mi South 6.9 mph - N/A Snow Light Snow
8:35 AM 33.8 °F 27.7 °F 29.1 °F 83% 29.62 in 10.0 mi South 6.9 mph - N/A Snow Light Snow
8:55 AM 33.4 °F 28.1 °F 29.3 °F 85% 29.62 in 1.8 mi South 5.8 mph - N/A Snow Light Snow
9:15 AM 33.6 °F 29.4 °F 29.5 °F 85% 29.61 in 7.0 mi South 4.6 mph - N/A Snow Light Snow
9:35 AM 34.0 °F 28.8 °F 30.0 °F 85% 29.61 in 3.0 mi South 5.8 mph - N/A Snow Light Snow
9:55 AM 33.8 °F 30.8 °F 30.2 °F 87% 29.60 in 1.5 mi South 3.5 mph - N/A Snow Light Snow
10:15 AM 34.7 °F 30.6 °F 31.1 °F 87% 29.60 in 3.0 mi South 4.6 mph - N/A Snow Light Snow
10:35 AM 34.7 °F 29.6 °F 30.7 °F 85% 29.59 in 2.5 mi SSW 5.8 mph - N/A Snow Light Snow
10:55 AM 34.7 °F 30.6 °F 31.1 °F 87% 29.59 in 3.0 mi South 4.6 mph - N/A Rain Light Rain
11:15 AM 34.7 °F 28.8 °F 30.9 °F 86% 29.59 in 3.0 mi SSW 6.9 mph - N/A Snow Light Snow
11:35 AM 34.7 °F 29.6 °F 31.1 °F 87% 29.58 in 2.0 mi South 5.8 mph - N/A Snow Light Snow
11:55 AM 34.9 °F 29.0 °F 31.1 °F 86% 29.58 in 2.0 mi SSW 6.9 mph - N/A Snow Light Snow
12:15 PM 35.1 °F 28.6 °F 31.5 °F 87% 29.58 in 1.2 mi SSW 8.1 mph - N/A Snow Light Snow
12:35 PM 35.8 °F 31.9 °F 32.0 °F 86% 29.57 in 2.5 mi South 4.6 mph - N/A Snow Light Snow
12:55 PM 36.0 °F 31.1 °F 32.0 °F 86% 29.57 in 3.0 mi SSW 5.8 mph - N/A Snow Light Snow
1:15 PM 37.0 °F 32.4 °F 32.0 °F 82% 29.56 in 7.0 mi SSW 5.8 mph - N/A Rain Light Rain
1:35 PM 36.1 °F 32.3 °F 32.0 °F 85% 29.56 in 5.0 mi SSW 4.6 mph - N/A Rain Light Rain
1:55 PM 36.5 °F - 32.2 °F 84% 29.55 in 10.0 mi Calm Calm - N/A Rain Light Rain
2:15 PM 37.0 °F 31.6 °F 32.5 °F 84% 29.55 in 10.0 mi West 6.9 mph - N/A   Overcast
2:35 PM 37.6 °F 30.5 °F 29.8 °F 74% 29.55 in 10.0 mi WSW 10.4 mph 21.9 mph N/A   Overcast
2:55 PM 38.3 °F 30.9 °F 28.8 °F 69% 29.55 in 10.0 mi WSW 11.5 mph 20.7 mph N/A   Mostly Cloudy
3:15 PM 39.2 °F 31.6 °F 27.7 °F 63% 29.55 in 10.0 mi WSW 12.7 mph 23.0 mph N/A   Mostly Cloudy
3:35 PM 38.3 °F 31.4 °F 26.1 °F 61% 29.55 in 10.0 mi WSW 10.4 mph 16.1 mph N/A   Mostly Cloudy
3:55 PM 37.9 °F 30.5 °F 25.9 °F 62% 29.55 in 10.0 mi WSW 11.5 mph 18.4 mph N/A   Overcast
4:15 PM 37.4 °F 29.3 °F 25.7 °F 63% 29.55 in 10.0 mi WSW 12.7 mph 24.2 mph N/A   Overcast
4:35 PM 37.4 °F 30.8 °F 25.2 °F 61% 29.56 in 10.0 mi West 9.2 mph 17.3 mph N/A Snow Light Snow
4:55 PM 36.5 °F 31.8 °F 26.6 °F 67% 29.57 in 7.0 mi SW 5.8 mph - N/A Snow Light Snow
5:15 PM 36.1 °F 31.4 °F 27.0 °F 69% 29.57 in 10.0 mi SSW 5.8 mph - N/A Snow Light Snow
5:35 PM 36.3 °F 28.9 °F 26.6 °F 68% 29.57 in 7.0 mi SSW 10.4 mph 18.4 mph N/A Snow Light Snow
5:55 PM 35.8 °F 28.3 °F 25.9 °F 67% 29.57 in 4.0 mi WSW 10.4 mph 19.6 mph N/A Snow Light Snow
6:15 PM 34.9 °F 27.1 °F 27.3 °F 74% 29.57 in 2.5 mi SW 10.4 mph - N/A Snow Light Snow
6:35 PM 34.3 °F 28.4 °F 28.0 °F 78% 29.58 in 2.0 mi SSW 6.9 mph - N/A Snow Light Snow
6:55 PM 33.4 °F 28.1 °F 28.6 °F 82% 29.58 in 1.8 mi SW 5.8 mph - N/A Snow Light Snow
7:15 PM 33.6 °F 29.4 °F 28.2 °F 81% 29.58 in 5.0 mi SSW 4.6 mph - N/A Snow Light Snow
7:35 PM 33.1 °F 30.0 °F 28.6 °F 84% 29.58 in 5.0 mi South 3.5 mph - N/A Snow Light Snow
7:55 PM 32.9 °F 27.5 °F 29.1 °F 86% 29.59 in 3.0 mi South 5.8 mph - N/A Snow Light Snow
8:15 PM 32.9 °F 25.9 °F 29.3 °F 87% 29.59 in 1.5 mi SW 8.1 mph - N/A Snow Light Snow
8:35 PM 32.5 °F 26.2 °F 29.1 °F 87% 29.60 in 1.0 mi SSW 6.9 mph - N/A Snow Snow
8:55 PM 32.4 °F 27.9 °F 29.1 °F 88% 29.60 in 4.0 mi SSW 4.6 mph - N/A Snow Light Snow
9:15 PM 32.4 °F 24.6 °F 27.5 °F 82% 29.60 in 5.0 mi SW 9.2 mph - N/A Snow Light Snow
9:35 PM 32.4 °F 24.6 °F 27.5 °F 82% 29.60 in 5.0 mi SW 9.2 mph - N/A Snow Light Snow
9:55 PM 32.4 °F 24.0 °F 27.7 °F 83% 29.60 in 3.0 mi SW 10.4 mph - N/A Snow Light Snow
10:15 PM 32.0 °F 23.6 °F 27.9 °F 85% 29.60 in 3.0 mi SW 10.4 mph - N/A Snow Light Snow
10:35 PM 32.0 °F 24.2 °F 27.3 °F 83% 29.61 in 4.0 mi SSW 9.2 mph - N/A Snow Light Snow
10:55 PM 32.0 °F 25.6 °F 27.5 °F 83% 29.61 in 2.5 mi SSW 6.9 mph - N/A Snow Light Snow
11:15 PM 32.0 °F 24.8 °F 26.8 °F 81% 29.60 in 5.0 mi SSW 8.1 mph - N/A Snow Light Snow
11:35 PM 32.0 °F 24.2 °F 26.6 °F 80% 29.60 in 4.0 mi SSW 9.2 mph - N/A Snow Light Snow
11:55 PM 32.0 °F 24.8 °F 26.4 °F 80% 29.60 in 5.0 mi SW 8.1 mph - N/A Snow Light Snow